Location: ?????????
(41.2286°N, 23.0068°E)
Time: 09:15:44
(UTC+00:00)

Cosmos 921 Rocket - Pass Details

Date: 08 November 2025
Orbit: 563 x 621 km, 75.8° (Epoch: 04 December)

Event Time Altitude Azimuth Distance (km) Brightness Sun altitude
Exits shadow 03:40:07 30° 260° (W) 1,119 3.8 -16.7°
Drops below altitude 10° 03:43:56 10° 200° (SSW) 1,977 5.5 -16.0°
Sets 03:46:21 0° 190° (S) 2,872 6.5 -15.6°
